Location: Unspecified
(40.7945°N, 111.1337°W)
Time: 14:03:44
(UTC-06:00)

Resurs 1-4 Rocket - Visible Passes

Search period start: 25 May 2017 00:00
Search period end: 04 June 2017 00:00
Orbit: 800 x 814 km, 98.5° (Epoch: 24 May)

Date Brightness Start Highest point End Pass type
(mag) Time Alt. Az. Time Alt. Az. Time Alt. Az.
25 May 4.3 02:32:38 10° NE 02:35:47 16° E 02:38:07 12° ESE visible
25 May 2.2 04:10:48 10° N 04:16:02 63° WNW 04:19:12 24° SSW visible
26 May 2.1 03:46:11 10° NNE 03:51:31 78° ESE 03:54:23 28° S visible
26 May 4.0 05:27:56 10° NNW 05:30:40 14° WNW 05:33:24 10° W visible
27 May 2.8 03:21:48 10° NNE 03:26:54 46° E 03:29:33 26° SSE visible
27 May 3.5 05:02:20 10° NNW 05:06:25 23° WNW 05:10:29 10° WSW visible
28 May 3.6 02:57:41 10° NE 03:02:12 28° E 03:04:43 19° SE visible
28 May 2.9 04:37:14 10° N 04:42:04 37° WNW 04:45:49 16° SW visible
29 May 4.3 02:34:07 10° NE 02:37:25 16° E 02:39:54 12° ESE visible
29 May 2.2 04:12:24 10° N 04:17:39 61° WNW 04:20:59 22° SW visible
30 May 2.1 03:47:47 10° NNE 03:53:07 81° ESE 03:56:09 27° S visible
31 May 2.8 03:23:22 10° NNE 03:28:31 48° E 03:31:18 25° SSE visible
31 May 3.6 05:03:59 10° NNW 05:08:00 22° WNW 05:12:00 10° WSW visible
01 Jun 3.6 02:59:14 10° NE 03:03:49 29° E 03:06:29 19° SE visible
01 Jun 3.0 04:38:52 10° N 04:43:40 35° WNW 04:47:33 15° SW visible
02 Jun 4.2 02:35:36 10° NE 02:39:02 17° E 02:41:38 13° SE visible
02 Jun 2.3 04:14:01 10° N 04:19:14 59° WNW 04:22:43 21° SW visible
03 Jun 2.1 03:49:22 10° NNE 03:54:44 85° ESE 03:57:53 25° S visible
